Tracking 30923 objects as of 1-Jul-2025
HD Live streaming from Space Station
objects crossing your sky now

COSMOS 1363

Track COSMOS 1363 now!
10-day predictions
COSMOS 1363 is classified as:


NORAD ID: 13166
Int'l Code: 1982-040G
Perigee: 1,480.6 km
Apogee: 1,511.7 km
Inclination: 74.0 °
Period: 115.7 minutes
Semi major axis: 7867 km
RCS: 0.7318 m2 (medium)
Launch date: May 6, 1982
Source: Commonwealth of Independent States (former USSR) (CIS)
Launch site: PLESETSK MISSILE AND SPACE COMPLEX (PKMTR)
Your satellite tracking list
GALAXY 11
Track 1 satellite(s)




NASA's NSSDC Master Catalog

Two Line Element Set (TLE):
1 13166U 82040G   25181.57507750  .00000001  00000-0  12187-3 0  9997
2 13166  74.0128 288.7500 0019765 236.7183 134.1457 12.44155639959816
Source of the keplerian elements: AFSPC